Time,TemperatureF,DewpointF,PressureIn,WindDirection,WindDirectionDegrees,WindSpeedMPH,WindSpeedGustMPH,Humidity,HourlyPrecipIn,Conditions,Clouds,dailyrainin,SolarRadiationWatts/m^2,SoftwareType,DateUTC
2013-05-06 00:00:00,58.0,31.0,-100.00,ENE,67,3.0,-999.0,35,-99.99,,,-99.99,0.000000,,2013-05-06 04:00:00,
2013-05-06 00:43:00,58.0,31.0,-100.00,ENE,67,3.0,-999.0,35,-99.99,,,-99.99,0.000000,,2013-05-06 04:43:00,
2013-05-06 00:53:00,58.0,31.0,-100.00,ENE,67,3.0,-999.0,35,-99.99,,,-99.99,0.000000,,2013-05-06 04:53:00,
2013-05-06 01:00:00,57.0,30.0,-100.00,NE,45,2.0,-999.0,34,-99.99,,,-99.99,0.000000,,2013-05-06 05:00:00,
2013-05-06 01:42:00,57.0,30.0,-100.00,NE,45,2.0,-999.0,34,-99.99,,,-99.99,0.000000,,2013-05-06 05:42:00,
2013-05-06 01:52:00,57.0,30.0,-100.00,NE,45,2.0,-999.0,34,-99.99,,,-99.99,0.000000,,2013-05-06 05:52:00,
2013-05-06 02:00:00,55.0,33.0,-100.00,NNE,22,3.0,-999.0,43,-99.99,,,-99.99,0.000000,,2013-05-06 06:00:00,
2013-05-06 02:42:00,55.0,33.0,-100.00,NNE,22,3.0,-999.0,43,-99.99,,,-99.99,0.000000,,2013-05-06 06:42:00,
2013-05-06 02:52:00,55.0,33.0,-100.00,NNE,22,3.0,-999.0,43,-99.99,,,-99.99,0.000000,,2013-05-06 06:52:00,
2013-05-06 03:00:00,53.0,33.0,-100.00,NNE,22,3.0,-999.0,47,-99.99,,,-99.99,0.000000,,2013-05-06 07:00:00,
2013-05-06 03:42:00,53.0,33.0,-100.00,NNE,22,3.0,-999.0,47,-99.99,,,-99.99,0.000000,,2013-05-06 07:42:00,
2013-05-06 03:52:00,53.0,33.0,-100.00,NNE,22,3.0,-999.0,47,-99.99,,,-99.99,0.000000,,2013-05-06 07:52:00,
2013-05-06 04:00:00,51.0,34.0,-100.00,North,0,3.0,-999.0,52,-99.99,,,-99.99,0.000000,,2013-05-06 08:00:00,
2013-05-06 04:42:00,51.0,34.0,-100.00,North,0,3.0,-999.0,52,-99.99,,,-99.99,0.000000,,2013-05-06 08:42:00,
2013-05-06 04:52:00,51.0,34.0,-100.00,North,0,3.0,-999.0,52,-99.99,,,-99.99,0.000000,,2013-05-06 08:52:00,
2013-05-06 05:00:00,50.0,35.0,-100.00,NE,45,3.0,-999.0,55,-99.99,,,-99.99,0.000000,,2013-05-06 09:00:00,
2013-05-06 05:43:00,50.0,35.0,-100.00,NE,45,3.0,-999.0,55,-99.99,,,-99.99,0.000000,,2013-05-06 09:43:00,
2013-05-06 05:53:00,50.0,35.0,-100.00,NE,45,3.0,-999.0,55,-99.99,,,-99.99,0.000000,,2013-05-06 09:53:00,
2013-05-06 06:00:00,48.0,37.0,-100.00,NNE,22,4.0,-999.0,63,-99.99,,,-99.99,0.000000,,2013-05-06 10:00:00,
2013-05-06 06:42:00,48.0,37.0,-100.00,NNE,22,4.0,-999.0,63,-99.99,,,-99.99,0.000000,,2013-05-06 10:42:00,
2013-05-06 06:52:00,48.0,37.0,-100.00,NNE,22,4.0,-999.0,63,-99.99,,,-99.99,0.000000,,2013-05-06 10:52:00,
2013-05-06 07:00:00,49.0,37.0,-100.00,NE,45,3.0,-999.0,62,-99.99,,,-99.99,4.640000,,2013-05-06 11:00:00,
2013-05-06 07:42:00,49.0,37.0,-100.00,NE,45,3.0,-999.0,62,-99.99,,,-99.99,4.640000,,2013-05-06 11:42:00,
2013-05-06 07:52:00,49.0,37.0,-100.00,NE,45,3.0,-999.0,62,-99.99,,,-99.99,4.640000,,2013-05-06 11:52:00,
2013-05-06 10:00:00,56.0,41.0,-100.00,East,90,5.0,-999.0,56,-99.99,,,-99.99,238.960007,,2013-05-06 14:00:00,
2013-05-06 10:42:00,56.0,41.0,-100.00,East,90,5.0,-999.0,56,-99.99,,,-99.99,238.960007,,2013-05-06 14:42:00,
2013-05-06 10:52:00,56.0,41.0,-100.00,East,90,5.0,-999.0,56,-99.99,,,-99.99,238.960007,,2013-05-06 14:52:00,
2013-05-06 11:00:00,61.0,42.0,-100.00,ENE,67,4.0,-999.0,48,-99.99,,,-99.99,416.440002,,2013-05-06 15:00:00,
2013-05-06 11:43:00,61.0,42.0,-100.00,ENE,67,4.0,-999.0,48,-99.99,,,-99.99,416.440002,,2013-05-06 15:43:00,
2013-05-06 11:53:00,61.0,42.0,-100.00,ENE,67,4.0,-999.0,48,-99.99,,,-99.99,416.440002,,2013-05-06 15:53:00,
2013-05-06 12:00:00,66.0,40.0,-100.00,East,90,4.0,-999.0,38,-99.99,,,-99.99,460.519989,,2013-05-06 16:00:00,
2013-05-06 12:42:00,66.0,40.0,-100.00,East,90,4.0,-999.0,38,-99.99,,,-99.99,460.519989,,2013-05-06 16:42:00,
2013-05-06 12:52:00,66.0,40.0,-100.00,East,90,4.0,-999.0,38,-99.99,,,-99.99,460.519989,,2013-05-06 16:52:00,
2013-05-06 13:00:00,68.0,37.0,-100.00,ENE,67,5.0,-999.0,31,-99.99,,,-99.99,508.079987,,2013-05-06 17:00:00,
2013-05-06 13:42:00,68.0,37.0,-100.00,ENE,67,5.0,-999.0,31,-99.99,,,-99.99,508.079987,,2013-05-06 17:42:00,
2013-05-06 13:52:00,68.0,37.0,-100.00,ENE,67,5.0,-999.0,31,-99.99,,,-99.99,508.079987,,2013-05-06 17:52:00,
2013-05-06 14:00:00,71.0,34.0,-100.00,NE,45,6.0,-999.0,25,-99.99,,,-99.99,561.440002,,2013-05-06 18:00:00,
2013-05-06 14:43:00,71.0,34.0,-100.00,NE,45,6.0,-999.0,25,-99.99,,,-99.99,561.440002,,2013-05-06 18:43:00,
2013-05-06 14:52:00,71.0,34.0,-100.00,NE,45,6.0,-999.0,25,-99.99,,,-99.99,561.440002,,2013-05-06 18:52:00,
2013-05-06 15:00:00,74.0,31.0,-100.00,NE,45,6.0,-999.0,20,-99.99,,,-99.99,692.520020,,2013-05-06 19:00:00,
2013-05-06 15:42:00,74.0,31.0,-100.00,NE,45,6.0,-999.0,20,-99.99,,,-99.99,692.520020,,2013-05-06 19:42:00,
2013-05-06 15:52:00,74.0,31.0,-100.00,NE,45,6.0,-999.0,20,-99.99,,,-99.99,692.520020,,2013-05-06 19:52:00,
2013-05-06 16:00:00,76.0,31.0,-100.00,NE,45,6.0,-999.0,19,-99.99,,,-99.99,764.440002,,2013-05-06 20:00:00,
2013-05-06 16:42:00,76.0,31.0,-100.00,NE,45,6.0,-999.0,19,-99.99,,,-99.99,764.440002,,2013-05-06 20:42:00,
2013-05-06 16:52:00,76.0,31.0,-100.00,NE,45,6.0,-999.0,19,-99.99,,,-99.99,764.440002,,2013-05-06 20:52:00,
2013-05-06 17:00:00,77.0,31.0,-100.00,NNE,22,6.0,-999.0,18,-99.99,,,-99.99,549.840027,,2013-05-06 21:00:00,
2013-05-06 17:43:00,77.0,31.0,-100.00,NNE,22,6.0,-999.0,18,-99.99,,,-99.99,549.840027,,2013-05-06 21:43:00,
2013-05-06 17:53:00,77.0,31.0,-100.00,NNE,22,6.0,-999.0,18,-99.99,,,-99.99,549.840027,,2013-05-06 21:53:00,
2013-05-06 18:00:00,75.0,38.0,-100.00,NNW,337,5.0,-999.0,26,-99.99,,,-99.99,470.959991,,2013-05-06 22:00:00,
2013-05-06 18:45:00,75.0,38.0,-100.00,NNW,337,5.0,-999.0,26,-99.99,,,-99.99,470.959991,,2013-05-06 22:45:00,
2013-05-06 18:52:00,75.0,38.0,-100.00,NNW,337,5.0,-999.0,26,-99.99,,,-99.99,470.959991,,2013-05-06 22:52:00,
2013-05-06 19:00:00,71.0,42.0,-100.00,NW,315,6.0,-999.0,34,-99.99,,,-99.99,341.040009,,2013-05-06 23:00:00,
2013-05-06 19:42:00,71.0,42.0,-100.00,NW,315,6.0,-999.0,34,-99.99,,,-99.99,341.040009,,2013-05-06 23:42:00,
2013-05-06 19:52:00,71.0,42.0,-100.00,NW,315,6.0,-999.0,34,-99.99,,,-99.99,341.040009,,2013-05-06 23:52:00,
2013-05-06 21:00:00,61.0,40.0,-100.00,NW,315,5.0,-999.0,46,-99.99,,,-99.99,24.360001,,2013-05-07 01:00:00,
2013-05-06 21:42:00,61.0,40.0,-100.00,NW,315,5.0,-999.0,46,-99.99,,,-99.99,24.360001,,2013-05-07 01:42:00,
2013-05-06 21:53:00,61.0,40.0,-100.00,NW,315,5.0,-999.0,46,-99.99,,,-99.99,24.360001,,2013-05-07 01:53:00,
2013-05-06 22:00:00,57.0,39.0,-100.00,WNW,292,3.0,-999.0,51,-99.99,,,-99.99,0.000000,,2013-05-07 02:00:00,
2013-05-06 22:32:00,57.0,39.0,-100.00,WNW,292,3.0,-999.0,51,-99.99,,,-99.99,0.000000,,2013-05-07 02:32:00,
2013-05-06 22:42:00,57.0,39.0,-100.00,WNW,292,3.0,-999.0,51,-99.99,,,-99.99,0.000000,,2013-05-07 02:42:00,
2013-05-06 22:52:00,57.0,39.0,-100.00,WNW,292,3.0,-999.0,51,-99.99,,,-99.99,0.000000,,2013-05-07 02:52:00,
2013-05-06 23:00:00,58.0,38.0,-100.00,NNE,22,2.0,-999.0,46,-99.99,,,-99.99,0.000000,,2013-05-07 03:00:00,
2013-05-06 23:43:00,58.0,38.0,-100.00,NNE,22,2.0,-999.0,46,-99.99,,,-99.99,0.000000,,2013-05-07 03:43:00,
2013-05-06 23:53:00,58.0,38.0,-100.00,NNE,22,2.0,-999.0,46,-99.99,,,-99.99,0.000000,,2013-05-07 03:53:00,